Regional Weather Roundup
Issued by NWS Cleveland, OH

Home | Current Version | Previous Version | Graphics & Text | Print | Product List | Glossary Off
Versions: 1 2 3 4 5 6 7 8 9 10 11 12 13 14 15 16 17 18 19 20 21 22 23 24 25 26 27 28 29 30 31 32 33 34 35 36 37 38 39 40 41 42 43 44 45 46 47 48 49 50

000
ASUS41 KCLE 280210
RWRCLE
OHIO REGIONAL WEATHER ROUNDUP
NATIONAL WEATHER SERVICE CLEVELAND, OH
900 PM EST MON FEB 27 2017

NOTE: "FAIR" INDICATES FEW OR NO CLOUDS BELOW 12,000 FEET WITH NO
SIGNIFICANT WEATHER AND/OR OBSTRUCTIONS TO VISIBILITY.

OHZ001>008-015>018-024>027-034-035-043-044-280300-
   NORTHWEST OHIO

CITY           SKY/WX    TMP DP  RH WIND       PRES   REMARKS
DEFIANCE       CLEAR     40  35  83 CALM      30.19R
FINDLAY        MOCLDY    44  37  76 SE8       30.20R
TOLEDO EXPRESS PTCLDY    41  38  89 S3        30.19S
TOLEDO EXEC    MOCLDY    41  38  89 S6        30.21S
LIMA           PTCLDY    41  40  96 SE8       30.19S
$$

OHZ009>014-019>023-028>033-038-089-280300-
   NORTHEAST OHIO

CITY           SKY/WX    TMP DP  RH WIND       PRES   REMARKS
CLE-HOPKINS    PTCLDY    43  34  70 S9        30.26S
CLE-LAKEFRONT  CLEAR     44  35  70 S12       30.23S
CUY CO. ARPT   CLOUDY    43  34  70 S10       30.24S
LORAIN-ELYRIA  CLEAR     40  34  79 S9        30.23S
ASHTABULA      CLOUDY    41  33  73 S8        30.26S
AKRON-CANTON   CLOUDY    41  36  82 S7        30.25S
WOOSTER        CLOUDY    40  37  89 SE7       30.25S
MANSFIELD      CLOUDY    41  37  86 SE10      30.22S
YOUNGSTOWN     LGT RAIN  41  35  79 S8        30.27R
$$

OHZ042-051>053-060>062-070>072-077>081-280300-
  SOUTHWEST OHIO

CITY           SKY/WX    TMP DP  RH WIND       PRES   REMARKS
CINC-COVINGTON PTCLDY    44  40  85 E3        30.19R
CINC-LUNKEN    CLEAR     39  38  96 CALM      30.23R
HAMILTON       MOCLDY    41  41 100 E3        30.21S
DAYTON         MOCLDY    42  40  92 SE7       30.21S
WRIGHT-PAT AFB MOCLDY    44  43  96 SE6       30.20S
DAYTON GENERAL PTCLDY    43  40  89 SE5       30.20R
WILMINGTON     MOCLDY    41  39  93 SE6       30.21R
$$

OHZ036-037-039>041-045>050-054>059-063>069-073>076-082>088-280300-
  CENTRAL AND SOUTHEAST OHIO

CITY           SKY/WX    TMP DP  RH WIND       PRES   REMARKS
COLUMBUS       MOCLDY    45  40  82 SE6       30.23S
OSU AIRPORT    MOCLDY    42  41  96 SE8       30.22S
BOLTON FIELD   MOCLDY    41  40  95 SE3       30.23S
RICKENBACK AFB CLOUDY    41  40  97 SE5       30.23S
NEWARK         PTCLDY    40  38  93 CALM      30.24S
MARION         CLOUDY    43  39  86 S10       30.22S
LANCASTER      CLOUDY    42  40  92 SE3       30.24S
ZANESVILLE       N/A     41  39  93 CALM      30.25S
NEW PHILLY     NOT AVBL
$$



USA.gov is the U.S. government's official web portal to all federal, state and local government web resources and services.